Location: Banff
(51.1667°N, 115.5667°W)
Time: 14:58:26
(UTC+00:00)

Altair - Pass Details

Date: 27 November 2020
Orbit: 1501 x 1682 km, 47.2° (Epoch: 15 January)

Event Time Altitude Azimuth Distance (km) Brightness Sun altitude
Exits shadow 11:46:45 19° 191° (S) 3,059 8.9 -32.5°
Drops below altitude 10° 11:49:49 10° 175° (S) 3,707 9.5 -32.0°
Sets 11:53:36 0° 163° (SSE) 4,713 10.2 -31.4°
